Flag for U.S.A. Weather past 2 weeks in Rancho Cucamonga, California, U.S.A.

Now
74 °F

Passing clouds.


Feels Like: 77 °F
Forecast: 69 / 94 °F
Wind: 3 mph from West

Location: Ontario International Airport

Current Time: Jul 30, 2014 at 2:35:17 AM

Latest Report: Jul 30, 2014 at 1:53 AM


Visibility: 10 mi

Pressure: 29.90 "Hg

Humidity: 52%

Dew point: 55 °F

Location of Rancho CucamongaLocation

Historic Weather in Rancho Cucamonga — Graph

°F

Rancho Cucamonga temperature yesterday

Maximum temperature yesterday: 95 °F (at 1:53 PM)
Minimum temperature yesterday: 73 °F (at 3:53 AM)
Average temperature yesterday: 82 °F

Past Weeks' High & Low Weather Summary

 TemperatureHumidityPressure
High104 °F (Jul 24, 2:53 PM)87% (Jul 17, 4:53 AM)30.07 "Hg (Jul 17, 4:53 AM)
Low62 °F (Jul 18, 3:53 AM)11% (Jul 24, 12:53 PM)29.68 "Hg (Jul 24, 5:53 PM)
Average77 °F52%29.93 "Hg
* Reported Jul 15 12:53 AM — Jul 30 12:53 AM, Rancho Cucamonga, Weather by CustomWeather, © 2014

Note: Actual official high and low records may vary slightly from our data, if they occured in-between our weather recording intervals... More about our weather records

Advertising

Rancho Cucamonga weather history for previous 24 hours

 ConditionsComfort  
Time TempWeatherWind HumidityBarometerVisibility
12:53 AM
Jul 30
75 °FPassing clouds.No wind45%29.91 "Hg10 mi
11:53 PM
Jul 29
76 °FPassing clouds.3 mph48%29.92 "Hg10 mi
10:53 PM77 °FPassing clouds.6 mph45%29.93 "Hg10 mi
9:53 PM78 °FPassing clouds.5 mph42%29.94 "Hg10 mi
8:53 PM79 °FPassing clouds.7 mph39%29.93 "Hg10 mi
7:53 PM81 °FPartly sunny.8 mph35%29.92 "Hg10 mi
6:53 PM85 °FPartly sunny.13 mph34%29.89 "Hg10 mi
5:53 PM88 °FHigh level clouds.13 mph35%29.88 "Hg10 mi
4:53 PM93 °FHigh level clouds.13 mph28%29.87 "Hg10 mi
3:53 PM93 °FOvercast.12 mph28%29.88 "Hg10 mi
2:53 PM93 °FOvercast.13 mph24%29.90 "Hg10 mi
1:53 PM95 °FOvercast.10 mph21%29.92 "Hg10 mi
12:53 PM93 °FOvercast.10 mph20%29.94 "Hg10 mi
11:53 AM90 °FOvercast.7 mph21%29.96 "Hg10 mi
10:53 AM88 °FPartly sunny.5 mph18%29.98 "Hg10 mi
9:53 AM83 °FScattered clouds.6 mph23%29.99 "Hg10 mi
8:53 AM80 °FScattered clouds.3 mph24%30.00 "Hg10 mi
7:53 AM78 °FPassing clouds.No wind27%30.00 "Hg10 mi
6:53 AM73 °FPassing clouds.No wind37%29.99 "Hg10 mi
5:53 AM73 °FPassing clouds.No wind36%29.97 "Hg10 mi
4:53 AM74 °FPassing clouds.No wind32%29.98 "Hg10 mi
3:53 AM73 °FPassing clouds.No wind32%29.98 "Hg10 mi
2:53 AM74 °FPassing clouds.No wind31%29.98 "Hg10 mi
Weather by CustomWeather, © 2014

See weather overviewHow to use our weather pages